EUTE 3B

导读

EUTE 3B(现称Eutelsat 3B)由欧洲通信卫星组织(Eutelsat)运营,于2014年5月26日发射,定点在3°E轨位,属欧洲通信卫星公司卫星舰队。它覆盖欧洲、中东、非洲、亚洲及美洲部分区域,提供卫星广播、高速互联网、固定与移动通信服务,助力全球千万电视家庭及多元通信需求,是Eutelsat全球卫星网络的重要组成部分。

基本信息
目录编号:
39773
目录名称:
EUTE 3B
国际标识:
2014-030A
轨道中心:
EARTH
卫星名称:
EUTE 3B
卫星全名:
--
卫星状态:
在轨 (已飞行4409 天)
发射日期:
2014-05-26 UTC
国别 :
(EUTE)
星等 :
--
轨道信息
数据来源 国际轨道数据 AOE轨道数据
星历时间 2026-06-20T17:25:20+0800
1天前
查看轨道信息
2026-06-21T13:00:00+0800
12小时前
查看轨道信息
半长轴 42164.728km 42164.756km
偏心率 0.0004071 0.0004245
轨道倾角 0.069° 0.070°
近地点辐角 62.900° 59.439°
升交点赤经 24.266° 27.223°
平近点角 325.847° 260.821°
近地点 35769.425km 35768.72km
远地点 35803.757km 35804.518km
周期 1436.097分钟 1436.098分钟
每日圈数 1.002718 1.002717
详细信息
使用方式:
暂无
2D轨道图
3D轨道图
轨道高度分析图
轨道倾角分析图
轨道综合分析图
查看轨道综合分析图